PRISMA (TANGO)

Satellite information

Favourite Embed

Satellite Type and Status

PAYLOADIN ORBIT

Key statistics

Satellite PRISMA (TANGO) at a glance.

Uptime

5661

Days in orbit

Revolutions

≈ 14.4

Per day

Orbit

SSO

Sun Synchronous Orbit

Inclination

98.4

Latest

Satellite identification and parameters

Extended collection of information and parameters for PRISMA (TANGO).

Object identification

Identified? True

Debris? False

Object name: PRISMA (TANGO)

International designator: 2010-028F

Object number (NORAD): 36827

Object ID (CCSDS): 36827

Country: SWEDEN (SWED)

Current information (Y/N): Y

RCS size: MEDIUM

Orbital parameters

Period: 99.678 minutes

Inclination: 98.4486 deg

SMA: 7121.324 km

Apoapsis: 773.343 km

Periapsis: 713.036 km

RAAN: 193.2393 deg

Eccentricy: 0.00423425

Argument of periapsis: 77.4891 deg

Mean anomaly: 283.1032 deg

Mean motion: 14.4464665 rev/day

Mean motion (dot): 0.00000644 rev/day2

B* drag term: 0.00019664239 1/REarth

Two-line elements (TLE)

Creation date: Dec. 12, 2025, 10:14 a.m.

Reference frame: TEME

Reference center: EARTH

Epoch: Dec. 12, 2025, 3:28 a.m. UTC

TLE line 0: 0 PRISMA (TANGO)

TLE line 1: 1 36827U 10028F 25346.14447727 .00000644 00000-0 19664-3 0 9996

TLE line 2: 2 36827 98.4486 193.2393 0042342 77.4891 283.1032 14.44646650675881

Live tracking on map

Real-time ground track for satellite PRISMA (TANGO).

In-orbit conjunctions

There are no conjunctions computed for PRISMA (TANGO), at the moment. Check back to stay up to date, as we update our databases every day.

Go to all conjunctions

Associated space launch

PRISMA (TANGO) was lifted into orbit during the mission ‘Dnepr 1 | Prisma-Mango, Prisma-Tango, Picard, BPA-1’, on board a Dnepr space rocket.

The launch took place on June 15, 2010, 2:42 p.m. from 370/13.

For more information about the launch, click the button.

Launch to space Dnepr 1 | Prisma-Mango, Prisma-Tango, Picard, BPA-1
Dnepr 1 | Prisma-Mango, Prisma-Tango, Picard, BPA-1

Agency: N/A

Status: Launch Successful

Launch date: June 15, 2010, 2:42 p.m. UTC

Rocket: Dnepr

Launch pad: 370/13

Location: Dombarovskiy, Russian Federation

...

Latest news about this satellite

There are no fresh news available about this satellite. Check back as we update our databases every day.


Newsletter sign-up

Weekly statistics, charts and insights to help you stay on top of the space industry.